User: anonymous   Login
Location: Unspecified
(0.0000°N, 0.0000°E)
Time: 11:02:14
(UTC+00:00)
Language:

STARLINK-11415 [DTC] - Orbit

View from above orbital plane
View from above orbital plane
View from above satellite
View from above satellite

Ground track
Ground track

The orbit is defined by the following mean orbital elements,

1 62592U          26145.01118803 +.00000000 +00000-0 +16122-2 0 00001
2 62592  43.0025  26.4787 0003536 251.7264 108.3219 15.70941444    01
Epoch (UTC): 25 May 2026 00:16:06
Eccentricity: 0.0003536
inclination: 43.0025°
perigee height: 354 km
apogee height: 359 km
right ascension of ascending node: 26.4787°
argument of perigee: 251.7264°
revolutions per day: 15.70941444
mean anomaly at epoch: 108.3219°

The dashed part of the orbit path shows where the satellite is in the earth's shadow,  

DLR